BEIDOU-3S IGSO-2S

Last updated on Sun Apr 05 2026 00:02:51 GMT+0000 (Coordinated Universal Time)

1 40938U 15053A 26093.91039947 -.00000148 00000+0 00000+0 0 9992 2 40938 49.3401 259.6611 0062363 189.8342 167.2762 1.00277577 38606
UTC large
Height (km)
Speed (km/s)
/
Latitude / Longitude
Inclination (degrees)
Orbital Period (minutes)
Azimuth
Elevation
Range (km)
Doppler Factor

Next 0 passes for location: London (51.5072 / 0.1276)

Sorry there are no passes over London.